MTN547 TJCP-TKPK

Flight info

Callsign MTN547
Flight time 1h 15m
Altitude 7000
Route COY G633 SKB
Aircraft K100/L-SBDGRY/S

Departure

Time 2026-04-21 01:22
Airport Benjamin Rivera Noriega Airport (TJCP)

Arrival

Time 2026-04-21 02:38
Airport Robert L. Bradshaw International Airport (TKPK)
Time Latitude Longitude Altitude Speed Heading
2026-04-21 01:04 18.31297 -65.30244 41 ft 0 kts 160°
2026-04-21 01:18 18.31292 -65.30241 41 ft 1 kts 150°
2026-04-21 01:18 18.31276 -65.30226 40 ft 4 kts 113°
2026-04-21 01:18 18.31258 -65.30186 38 ft 7 kts 123°
2026-04-21 01:19 18.31246 -65.30167 38 ft 3 kts 125°
2026-04-21 01:19 18.31227 -65.30136 36 ft 4 kts 127°
2026-04-21 01:19 18.31222 -65.30128 36 ft 0 kts 132°
2026-04-21 01:19 18.31209 -65.30113 36 ft 4 kts 145°
2026-04-21 01:20 18.31176 -65.30094 35 ft 5 kts 186°
2026-04-21 01:20 18.31160 -65.30115 35 ft 0 kts 296°
2026-04-21 01:21 18.31265 -65.30315 42 ft 62 kts 299°
2026-04-21 01:21 18.31527 -65.30787 200 ft 78 kts 302°
2026-04-21 01:21 18.31841 -65.31254 454 ft 75 kts 321°
2026-04-21 01:22 18.32341 -65.31476 622 ft 84 kts 343°
2026-04-21 01:22 18.32887 -65.31694 846 ft 84 kts 335°
2026-04-21 01:22 18.33431 -65.31911 1049 ft 86 kts 340°
2026-04-21 01:22 18.33910 -65.32273 1251 ft 87 kts 307°
2026-04-21 01:23 18.34153 -65.32849 1455 ft 87 kts 274°
2026-04-21 01:23 18.33997 -65.33454 1656 ft 87 kts 236°
2026-04-21 01:23 18.33513 -65.33826 1857 ft 87 kts 196°
2026-04-21 01:23 18.32912 -65.33793 2037 ft 93 kts 158°
2026-04-21 01:24 18.32424 -65.33323 2235 ft 100 kts 117°
2026-04-21 01:24 18.32268 -65.32861 2386 ft 102 kts 108°
2026-04-21 01:24 18.32067 -65.32153 2620 ft 103 kts 108°
2026-04-21 01:24 18.31783 -65.31458 2861 ft 103 kts 119°
2026-04-21 01:25 18.31398 -65.30823 3100 ft 103 kts 126°
2026-04-21 01:25 18.30960 -65.30235 3335 ft 103 kts 130°
2026-04-21 01:25 18.30492 -65.29672 3569 ft 103 kts 133°
2026-04-21 01:25 18.30001 -65.29118 3803 ft 103 kts 134°
2026-04-21 01:26 18.29509 -65.28579 4031 ft 103 kts 135°
2026-04-21 01:26 18.29010 -65.28044 4259 ft 103 kts 135°
2026-04-21 01:26 18.28508 -65.27510 4485 ft 102 kts 135°
2026-04-21 01:26 18.28008 -65.26982 4707 ft 102 kts 135°
2026-04-21 01:27 18.27505 -65.26454 4927 ft 102 kts 135°
2026-04-21 01:27 18.27008 -65.25932 5143 ft 102 kts 136°
2026-04-21 01:27 18.26505 -65.25404 5359 ft 102 kts 136°
2026-04-21 01:27 18.26000 -65.24875 5573 ft 102 kts 136°
2026-04-21 01:28 18.25504 -65.24355 5782 ft 101 kts 136°
2026-04-21 01:28 18.25001 -65.23827 5990 ft 101 kts 136°
2026-04-21 01:28 18.24504 -65.23306 6194 ft 101 kts 136°
2026-04-21 01:28 18.24010 -65.22790 6394 ft 101 kts 136°
2026-04-21 01:29 18.23510 -65.22266 6594 ft 101 kts 136°
2026-04-21 01:29 18.23015 -65.21744 6791 ft 101 kts 135°
2026-04-21 01:29 18.22521 -65.21224 6969 ft 103 kts 135°
2026-04-21 01:29 18.21983 -65.20659 7008 ft 117 kts 135°
2026-04-21 01:30 18.21369 -65.20016 7004 ft 129 kts 135°
2026-04-21 01:30 18.20710 -65.19327 6998 ft 137 kts 135°
2026-04-21 01:30 18.20022 -65.18607 6993 ft 142 kts 135°
2026-04-21 01:30 18.19504 -65.18067 6992 ft 144 kts 135°
2026-04-21 01:31 18.19045 -65.17587 6992 ft 145 kts 135°
2026-04-21 01:31 18.18336 -65.16846 6991 ft 146 kts 135°
2026-04-21 01:31 18.17609 -65.16087 6991 ft 146 kts 135°
2026-04-21 01:31 18.16883 -65.15329 6990 ft 147 kts 135°
2026-04-21 01:32 18.16161 -65.14574 6990 ft 147 kts 135°
2026-04-21 01:32 18.15436 -65.13818 6990 ft 147 kts 135°
2026-04-21 01:32 18.14712 -65.13063 6990 ft 147 kts 136°
2026-04-21 01:32 18.13984 -65.12306 6990 ft 147 kts 135°
2026-04-21 01:33 18.13258 -65.11545 6990 ft 147 kts 135°
2026-04-21 01:33 18.12536 -65.10789 6990 ft 147 kts 135°
2026-04-21 01:33 18.11816 -65.10036 6990 ft 147 kts 135°
2026-04-21 01:33 18.11086 -65.09274 6990 ft 147 kts 135°
2026-04-21 01:34 18.10362 -65.08517 6990 ft 147 kts 135°
2026-04-21 01:34 18.09641 -65.07764 6990 ft 147 kts 135°
2026-04-21 01:34 18.08914 -65.07006 6990 ft 147 kts 135°
2026-04-21 01:34 18.08191 -65.06251 6990 ft 147 kts 135°
2026-04-21 01:35 18.07463 -65.05491 6990 ft 147 kts 135°
2026-04-21 01:35 18.06738 -65.04735 6990 ft 147 kts 135°
2026-04-21 01:35 18.06010 -65.03976 6990 ft 147 kts 135°
2026-04-21 01:35 18.05288 -65.03223 6990 ft 147 kts 135°
2026-04-21 01:36 18.04558 -65.02460 6990 ft 147 kts 135°
2026-04-21 01:36 18.03834 -65.01706 6990 ft 147 kts 135°
2026-04-21 01:36 18.03110 -65.00951 6990 ft 147 kts 135°
2026-04-21 01:36 18.02382 -65.00191 6990 ft 147 kts 135°
2026-04-21 01:37 18.01652 -64.99430 6990 ft 147 kts 135°
2026-04-21 01:37 18.00930 -64.98678 6990 ft 147 kts 135°
2026-04-21 01:37 18.00202 -64.97919 6990 ft 147 kts 135°
2026-04-21 01:37 17.99472 -64.97158 6990 ft 147 kts 135°
2026-04-21 01:38 17.98752 -64.96408 6990 ft 147 kts 135°
2026-04-21 01:38 17.98027 -64.95652 6990 ft 147 kts 135°
2026-04-21 01:38 17.97301 -64.94898 6990 ft 147 kts 135°
2026-04-21 01:38 17.96566 -64.94134 6990 ft 147 kts 135°
2026-04-21 01:39 17.95837 -64.93380 6990 ft 147 kts 135°
2026-04-21 01:39 17.95114 -64.92632 6990 ft 147 kts 135°
2026-04-21 01:39 17.94387 -64.91878 6990 ft 147 kts 135°
2026-04-21 01:39 17.93655 -64.91118 6990 ft 147 kts 135°
2026-04-21 01:40 17.92933 -64.90368 6990 ft 147 kts 135°
2026-04-21 01:40 17.92201 -64.89606 6990 ft 147 kts 135°
2026-04-21 01:40 17.91480 -64.88857 6990 ft 147 kts 135°
2026-04-21 01:40 17.90749 -64.88097 6990 ft 147 kts 135°
2026-04-21 01:41 17.90027 -64.87346 6990 ft 147 kts 135°
2026-04-21 01:41 17.89293 -64.86582 6990 ft 147 kts 135°
2026-04-21 01:41 17.88573 -64.85834 6990 ft 147 kts 135°
2026-04-21 01:41 17.87846 -64.85078 6990 ft 147 kts 135°
2026-04-21 01:42 17.87116 -64.84318 6990 ft 147 kts 135°
2026-04-21 01:42 17.86385 -64.83558 6990 ft 147 kts 135°
2026-04-21 01:42 17.85662 -64.82806 6990 ft 147 kts 135°
2026-04-21 01:42 17.84939 -64.82056 6990 ft 147 kts 135°
2026-04-21 01:43 17.84207 -64.81294 6990 ft 147 kts 135°
2026-04-21 01:43 17.83481 -64.80540 6990 ft 147 kts 135°
2026-04-21 01:43 17.82758 -64.79788 6990 ft 147 kts 135°
2026-04-21 01:43 17.82029 -64.79031 6990 ft 147 kts 135°
2026-04-21 01:44 17.81305 -64.78278 6990 ft 147 kts 135°
2026-04-21 01:44 17.80574 -64.77518 6990 ft 147 kts 135°
2026-04-21 01:44 17.79847 -64.76765 6990 ft 147 kts 135°
2026-04-21 01:44 17.79123 -64.76012 6990 ft 147 kts 135°
2026-04-21 01:45 17.78389 -64.75249 6990 ft 147 kts 135°
2026-04-21 01:45 17.77664 -64.74496 6990 ft 147 kts 135°
2026-04-21 01:45 17.76934 -64.73739 6990 ft 147 kts 135°
2026-04-21 01:45 17.76213 -64.72990 6990 ft 147 kts 135°
2026-04-21 01:46 17.75485 -64.72234 6990 ft 147 kts 135°
2026-04-21 01:46 17.74753 -64.71475 6990 ft 147 kts 135°
2026-04-21 01:46 17.74030 -64.70725 6990 ft 147 kts 135°
2026-04-21 01:46 17.73535 -64.69809 6990 ft 147 kts 107°
2026-04-21 01:47 17.73240 -64.68774 6992 ft 147 kts 105°
2026-04-21 01:47 17.72974 -64.67737 6990 ft 147 kts 104°
2026-04-21 01:47 17.72724 -64.66708 6990 ft 147 kts 104°
2026-04-21 01:47 17.72477 -64.65655 6990 ft 147 kts 104°
2026-04-21 01:48 17.72238 -64.64615 6990 ft 147 kts 103°
2026-04-21 01:48 17.72003 -64.63573 6990 ft 147 kts 103°
2026-04-21 01:48 17.71767 -64.62521 6990 ft 147 kts 103°
2026-04-21 01:48 17.71536 -64.61483 6990 ft 147 kts 103°
2026-04-21 01:49 17.71302 -64.60429 6990 ft 147 kts 103°
2026-04-21 01:49 17.71071 -64.59387 6990 ft 147 kts 103°
2026-04-21 01:49 17.70842 -64.58350 6990 ft 147 kts 103°
2026-04-21 01:49 17.70610 -64.57296 6990 ft 147 kts 103°
2026-04-21 01:50 17.70380 -64.56255 6990 ft 147 kts 103°
2026-04-21 01:50 17.70147 -64.55199 6990 ft 147 kts 103°
2026-04-21 01:50 17.69919 -64.54161 6990 ft 147 kts 103°
2026-04-21 01:50 17.69689 -64.53119 6990 ft 147 kts 103°
2026-04-21 01:51 17.69456 -64.52065 6990 ft 147 kts 103°
2026-04-21 01:51 17.69227 -64.51025 6990 ft 147 kts 103°
2026-04-21 01:51 17.68995 -64.49972 6990 ft 147 kts 103°
2026-04-21 01:51 17.68765 -64.48930 6990 ft 147 kts 103°
2026-04-21 01:52 17.68535 -64.47887 6990 ft 147 kts 103°
2026-04-21 01:52 17.68072 -64.45789 6990 ft 147 kts 103°
2026-04-21 01:52 17.67841 -64.44742 6990 ft 147 kts 103°
2026-04-21 01:53 17.67610 -64.43700 6990 ft 147 kts 103°
2026-04-21 01:53 17.67377 -64.42645 6990 ft 147 kts 103°
2026-04-21 01:53 17.67148 -64.41605 6990 ft 147 kts 103°
2026-04-21 01:53 17.66917 -64.40560 6990 ft 147 kts 103°
2026-04-21 01:54 17.66685 -64.39513 6990 ft 147 kts 103°
2026-04-21 01:54 17.66455 -64.38470 6990 ft 147 kts 103°
2026-04-21 01:54 17.66221 -64.37414 6990 ft 147 kts 103°
2026-04-21 01:54 17.65991 -64.36374 6990 ft 147 kts 103°
2026-04-21 01:55 17.65758 -64.35322 6990 ft 147 kts 103°
2026-04-21 01:55 17.65527 -64.34277 6990 ft 147 kts 103°
2026-04-21 01:55 17.65296 -64.33235 6990 ft 147 kts 103°
2026-04-21 01:55 17.65063 -64.32183 6990 ft 147 kts 103°
2026-04-21 01:56 17.64832 -64.31141 6990 ft 147 kts 103°
2026-04-21 01:56 17.64599 -64.30090 6990 ft 147 kts 103°
2026-04-21 01:56 17.64370 -64.29057 6990 ft 147 kts 103°
2026-04-21 01:56 17.64136 -64.28001 6990 ft 147 kts 103°
2026-04-21 01:57 17.63905 -64.26958 6990 ft 147 kts 103°
2026-04-21 01:57 17.63674 -64.25918 6990 ft 147 kts 103°
2026-04-21 01:57 17.63440 -64.24862 6990 ft 147 kts 103°
2026-04-21 01:57 17.63209 -64.23824 6990 ft 147 kts 103°
2026-04-21 01:58 17.62975 -64.22768 6990 ft 147 kts 103°
2026-04-21 01:58 17.62746 -64.21735 6990 ft 147 kts 103°
2026-04-21 01:58 17.62513 -64.20689 6990 ft 147 kts 103°
2026-04-21 01:58 17.62279 -64.19637 6990 ft 147 kts 103°
2026-04-21 01:59 17.62048 -64.18597 6990 ft 147 kts 103°
2026-04-21 01:59 17.61816 -64.17550 6990 ft 147 kts 103°
2026-04-21 01:59 17.61581 -64.16494 6990 ft 147 kts 103°
2026-04-21 01:59 17.61350 -64.15456 6990 ft 147 kts 103°
2026-04-21 02:00 17.61116 -64.14405 6990 ft 147 kts 103°
2026-04-21 02:00 17.60885 -64.13367 6990 ft 147 kts 103°
2026-04-21 02:00 17.60651 -64.12314 6990 ft 147 kts 103°
2026-04-21 02:00 17.60418 -64.11269 6990 ft 147 kts 103°
2026-04-21 02:01 17.60186 -64.10230 6990 ft 147 kts 103°
2026-04-21 02:01 17.59952 -64.09176 6990 ft 147 kts 103°
2026-04-21 02:01 17.59720 -64.08137 6990 ft 147 kts 103°
2026-04-21 02:01 17.59486 -64.07085 6990 ft 147 kts 103°
2026-04-21 02:02 17.59254 -64.06046 6990 ft 147 kts 103°
2026-04-21 02:02 17.59019 -64.04994 6990 ft 147 kts 103°
2026-04-21 02:02 17.58785 -64.03945 6990 ft 147 kts 103°
2026-04-21 02:02 17.58554 -64.02908 6990 ft 147 kts 103°
2026-04-21 02:03 17.58320 -64.01859 6990 ft 147 kts 103°
2026-04-21 02:03 17.58085 -64.00809 6990 ft 147 kts 103°
2026-04-21 02:03 17.57853 -63.99770 6990 ft 147 kts 103°
2026-04-21 02:03 17.57619 -63.98721 6990 ft 147 kts 103°
2026-04-21 02:04 17.57384 -63.97670 6990 ft 147 kts 103°
2026-04-21 02:04 17.57152 -63.96628 6990 ft 147 kts 103°
2026-04-21 02:04 17.56919 -63.95588 6990 ft 147 kts 103°
2026-04-21 02:04 17.56685 -63.94540 6990 ft 147 kts 103°
2026-04-21 02:05 17.56451 -63.93493 6990 ft 147 kts 103°
2026-04-21 02:05 17.56215 -63.92442 6990 ft 147 kts 103°
2026-04-21 02:05 17.55982 -63.91398 6990 ft 147 kts 103°
2026-04-21 02:05 17.55750 -63.90360 6990 ft 147 kts 103°
2026-04-21 02:06 17.55514 -63.89309 6990 ft 147 kts 103°
2026-04-21 02:06 17.55281 -63.88269 6990 ft 147 kts 103°
2026-04-21 02:06 17.55045 -63.87216 6990 ft 147 kts 103°
2026-04-21 02:06 17.54813 -63.86179 6990 ft 147 kts 103°
2026-04-21 02:07 17.54577 -63.85126 6990 ft 147 kts 103°
2026-04-21 02:07 17.54342 -63.84077 6990 ft 147 kts 103°
2026-04-21 02:07 17.54108 -63.83036 6990 ft 147 kts 103°
2026-04-21 02:07 17.53874 -63.81991 6990 ft 147 kts 103°
2026-04-21 02:08 17.53637 -63.80937 6990 ft 147 kts 103°
2026-04-21 02:08 17.53405 -63.79902 6990 ft 147 kts 103°
2026-04-21 02:08 17.53169 -63.78851 6990 ft 147 kts 103°
2026-04-21 02:08 17.52935 -63.77809 6990 ft 147 kts 103°
2026-04-21 02:09 17.52701 -63.76768 6990 ft 147 kts 103°
2026-04-21 02:09 17.52544 -63.76065 6990 ft 147 kts 103°
2026-04-21 02:09 17.52230 -63.74668 6990 ft 147 kts 103°
2026-04-21 02:09 17.51996 -63.73625 6990 ft 147 kts 103°
2026-04-21 02:10 17.51760 -63.72575 6990 ft 147 kts 103°
2026-04-21 02:10 17.51524 -63.71530 6990 ft 147 kts 103°
2026-04-21 02:10 17.51290 -63.70490 6990 ft 147 kts 103°
2026-04-21 02:10 17.51056 -63.69449 6990 ft 147 kts 103°
2026-04-21 02:11 17.50821 -63.68404 6990 ft 147 kts 103°
2026-04-21 02:11 17.50584 -63.67350 6990 ft 147 kts 103°
2026-04-21 02:11 17.50355 -63.66296 6990 ft 147 kts 102°
2026-04-21 02:11 17.50142 -63.65247 6990 ft 147 kts 102°
2026-04-21 02:12 17.49931 -63.64208 6990 ft 147 kts 102°
2026-04-21 02:12 17.49717 -63.63145 6990 ft 147 kts 102°
2026-04-21 02:12 17.49505 -63.62099 6990 ft 147 kts 102°
2026-04-21 02:12 17.49294 -63.61052 6990 ft 147 kts 102°
2026-04-21 02:13 17.49082 -63.60005 6990 ft 147 kts 102°
2026-04-21 02:13 17.48870 -63.58953 6990 ft 147 kts 102°
2026-04-21 02:13 17.48657 -63.57898 6990 ft 147 kts 102°
2026-04-21 02:13 17.48444 -63.56844 6990 ft 147 kts 102°
2026-04-21 02:14 17.48232 -63.55794 6990 ft 147 kts 102°
2026-04-21 02:14 17.48019 -63.54740 6990 ft 147 kts 102°
2026-04-21 02:14 17.47806 -63.53688 6990 ft 147 kts 102°
2026-04-21 02:14 17.47593 -63.52637 6990 ft 147 kts 102°
2026-04-21 02:15 17.47381 -63.51585 6990 ft 147 kts 102°
2026-04-21 02:15 17.47169 -63.50536 6990 ft 147 kts 102°
2026-04-21 02:15 17.46957 -63.49490 6990 ft 147 kts 102°
2026-04-21 02:15 17.46743 -63.48432 6990 ft 147 kts 102°
2026-04-21 02:16 17.46531 -63.47387 6990 ft 147 kts 102°
2026-04-21 02:16 17.46319 -63.46338 6990 ft 147 kts 102°
2026-04-21 02:16 17.46106 -63.45289 6990 ft 147 kts 102°
2026-04-21 02:16 17.45893 -63.44237 6990 ft 147 kts 102°
2026-04-21 02:17 17.45681 -63.43191 6990 ft 147 kts 102°
2026-04-21 02:17 17.45467 -63.42133 6990 ft 147 kts 102°
2026-04-21 02:17 17.45253 -63.41081 6990 ft 147 kts 102°
2026-04-21 02:17 17.45041 -63.40035 6990 ft 147 kts 102°
2026-04-21 02:18 17.44827 -63.38981 6990 ft 147 kts 102°
2026-04-21 02:18 17.44613 -63.37929 6990 ft 147 kts 102°
2026-04-21 02:18 17.44400 -63.36878 6990 ft 147 kts 102°
2026-04-21 02:18 17.44187 -63.35829 6990 ft 147 kts 102°
2026-04-21 02:19 17.43972 -63.34772 6990 ft 147 kts 102°
2026-04-21 02:19 17.43761 -63.33733 6990 ft 147 kts 102°
2026-04-21 02:19 17.43547 -63.32677 6990 ft 147 kts 102°
2026-04-21 02:19 17.43332 -63.31620 6990 ft 147 kts 102°
2026-04-21 02:20 17.43119 -63.30577 6990 ft 147 kts 102°
2026-04-21 02:20 17.42904 -63.29517 6990 ft 147 kts 102°
2026-04-21 02:20 17.42693 -63.28479 6990 ft 147 kts 102°
2026-04-21 02:20 17.42477 -63.27420 6990 ft 147 kts 102°
2026-04-21 02:21 17.42265 -63.26378 6990 ft 147 kts 102°
2026-04-21 02:21 17.42049 -63.25320 6990 ft 147 kts 102°
2026-04-21 02:21 17.41834 -63.24264 6990 ft 147 kts 102°
2026-04-21 02:21 17.41620 -63.23215 6990 ft 147 kts 102°
2026-04-21 02:22 17.41409 -63.22173 6990 ft 147 kts 102°
2026-04-21 02:22 17.41196 -63.21112 6990 ft 147 kts 102°
2026-04-21 02:22 17.40987 -63.20064 6990 ft 147 kts 102°
2026-04-21 02:22 17.40779 -63.19019 6990 ft 147 kts 102°
2026-04-21 02:23 17.40564 -63.17958 6990 ft 147 kts 102°
2026-04-21 02:23 17.40352 -63.16915 6990 ft 147 kts 102°
2026-04-21 02:23 17.40136 -63.15857 6990 ft 147 kts 102°
2026-04-21 02:23 17.39922 -63.14803 6990 ft 147 kts 102°
2026-04-21 02:24 17.39708 -63.13753 6990 ft 147 kts 102°
2026-04-21 02:24 17.39496 -63.12713 6990 ft 147 kts 102°
2026-04-21 02:24 17.39279 -63.11652 6990 ft 147 kts 102°
2026-04-21 02:24 17.39067 -63.10615 6990 ft 147 kts 102°
2026-04-21 02:25 17.38849 -63.09552 6990 ft 147 kts 102°
2026-04-21 02:25 17.38635 -63.08502 6990 ft 147 kts 102°
2026-04-21 02:25 17.38419 -63.07448 6990 ft 147 kts 102°
2026-04-21 02:25 17.38204 -63.06399 6990 ft 147 kts 102°
2026-04-21 02:26 17.37990 -63.05354 6990 ft 147 kts 102°
2026-04-21 02:26 17.37774 -63.04296 6990 ft 147 kts 102°
2026-04-21 02:26 17.37560 -63.03251 6990 ft 147 kts 102°
2026-04-21 02:26 17.37343 -63.02195 6990 ft 147 kts 102°
2026-04-21 02:27 17.37124 -63.01149 6989 ft 148 kts 107°
2026-04-21 02:27 17.36512 -63.00321 6996 ft 147 kts 134°
2026-04-21 02:27 17.35881 -62.99477 6990 ft 147 kts 121°
2026-04-21 02:27 17.35284 -62.98612 6992 ft 147 kts 125°
2026-04-21 02:28 17.34681 -62.97741 6990 ft 147 kts 126°
2026-04-21 02:28 17.34080 -62.96871 6990 ft 147 kts 126°
2026-04-21 02:28 17.33434 -62.96028 6990 ft 147 kts 129°
2026-04-21 02:28 17.32790 -62.95197 6990 ft 147 kts 129°
2026-04-21 02:29 17.32145 -62.94354 6938 ft 150 kts 128°
2026-04-21 02:29 17.31498 -62.93498 6788 ft 149 kts 128°
2026-04-21 02:29 17.30861 -62.92654 6637 ft 148 kts 129°
2026-04-21 02:29 17.30201 -62.91834 6488 ft 148 kts 131°
2026-04-21 02:30 17.29510 -62.91048 6338 ft 147 kts 134°
2026-04-21 02:30 17.28788 -62.90293 6184 ft 143 kts 136°
2026-04-21 02:30 17.28070 -62.89596 6030 ft 139 kts 138°
2026-04-21 02:30 17.27344 -62.88942 5878 ft 137 kts 140°
2026-04-21 02:31 17.26607 -62.88325 5727 ft 136 kts 142°
2026-04-21 02:31 17.25849 -62.87738 5576 ft 135 kts 144°
2026-04-21 02:31 17.25076 -62.87185 5426 ft 135 kts 147°
2026-04-21 02:31 17.24290 -62.86666 5277 ft 134 kts 149°
2026-04-21 02:32 17.23614 -62.86024 5117 ft 130 kts 114°
2026-04-21 02:32 17.23447 -62.85123 4964 ft 125 kts 88°
2026-04-21 02:32 17.23739 -62.84279 4726 ft 122 kts 63°
2026-04-21 02:32 17.24125 -62.83521 4441 ft 113 kts 62°
2026-04-21 02:33 17.24488 -62.82827 4176 ft 109 kts 61°
2026-04-21 02:33 17.24851 -62.82138 3881 ft 106 kts 61°
2026-04-21 02:33 17.25207 -62.81469 3493 ft 105 kts 61°
2026-04-21 02:33 17.25549 -62.80825 3134 ft 100 kts 61°
2026-04-21 02:34 17.25884 -62.80193 2754 ft 101 kts 61°
2026-04-21 02:34 17.26241 -62.79578 2361 ft 97 kts 57°
2026-04-21 02:34 17.26601 -62.79001 1988 ft 94 kts 58°
2026-04-21 02:34 17.26936 -62.78429 1698 ft 97 kts 58°
2026-04-21 02:35 17.27308 -62.77852 1486 ft 92 kts 54°
2026-04-21 02:35 17.27672 -62.77319 1316 ft 89 kts 56°
2026-04-21 02:35 17.27983 -62.76803 1199 ft 81 kts 58°
2026-04-21 02:35 17.28301 -62.76301 1045 ft 85 kts 55°
2026-04-21 02:36 17.28629 -62.75799 914 ft 84 kts 55°
2026-04-21 02:36 17.28961 -62.75287 779 ft 84 kts 57°
2026-04-21 02:36 17.29275 -62.74770 644 ft 83 kts 56°
2026-04-21 02:36 17.29590 -62.74273 528 ft 81 kts 55°
2026-04-21 02:37 17.29902 -62.73782 432 ft 81 kts 56°
2026-04-21 02:37 17.30214 -62.73292 342 ft 81 kts 56°
2026-04-21 02:37 17.30527 -62.72802 220 ft 79 kts 57°
2026-04-21 02:37 17.30819 -62.72339 178 ft 72 kts 53°
2026-04-21 02:38 17.31081 -62.71947 175 ft 49 kts 59°
2026-04-21 02:38 17.31202 -62.71753 170 ft 22 kts 57°
2026-04-21 02:38 17.31309 -62.71597 166 ft 29 kts 65°
2026-04-21 02:38 17.31395 -62.71437 160 ft 14 kts 51°
2026-04-21 02:39 17.31407 -62.71374 156 ft 10 kts 147°
2026-04-21 02:39 17.31346 -62.71390 154 ft 6 kts 213°